{"data":{"norad_id":67807,"intl_designator":"2026-032L","name":"STARLINK-36382","alt_names":[],"object_type":"PAYLOAD","status":"ACTIVE","operator":null,"country":"US","launch_date":"2026-02-15","launch_site_code":"AFWTR","launch_vehicle":null,"mission":null,"orbit_class":"UNKNOWN","rcs_meters":null,"size_class":null,"mass_kg":null,"dimensions":null,"purposes":["comms"],"wikipedia_slug":null,"has_3d_model":false,"image_url":null,"decayed_at":null,"tle_current":{"epoch":"2026-05-25T01:24:30.381408Z","epoch_age_seconds":63842,"freshness":"FRESH","line1":"1 67807U 26032L   26145.05868497  .00017437  00000+0  54108-3 0  9998","line2":"2 67807  97.2848 333.1399 0001602 101.7622 258.3801 15.33451507 16667","mean_motion":15.33451507,"eccentricity":0.0001602,"inclination_deg":97.2848,"raan_deg":333.1399,"arg_perigee_deg":101.7622,"mean_anomaly_deg":258.3801,"bstar":0.00054108,"rev_number":1666,"period_min":93.905806178193,"perigee_km":464.42745983021,"apogee_km":466.62016875511,"semimajor_km":6843.6608142927,"source":"CELESTRAK","updated_at":"2026-05-25T13:38:21.693946Z"}}}